Weather History for Black River Falls, WI

Change the Weather History Date:

Sunday, September 8, 2013

  Actual Average (KLSE) Record (KLSE)
Temperature  
Mean Temperature 70 °F 66 °F  
Max Temperature 79 °F 76 °F 99 °F (1978)
Min Temperature 62 °F 56 °F 35 °F (1883)
Degree Days  
Heating Degree Days 0 2  
Month to date heating degree days 14  
Since 1 July heating degree days 34  
Cooling Degree Days 5 4  
Month to date cooling degree days 34  
Year to date cooling degree days 734  
Growing Degree Days 20 (Base 50)    
Moisture  
Dew Point 59 °F    
Average Humidity 69    
Maximum Humidity 95    
Minimum Humidity 43    
Precipitation  
Precipitation 0.00 in 0.13 in 2.24 in (1901)
Month to date precipitation 0.99  
Year to date precipitation 24.95  
Snow  
Snow 0.00 in 0.00 in 0.00 in (2002)
Month to date snowfall 0.0  
Since 1 July snowfall 0.0  
Snow Depth -    
Sea Level Pressure  
Sea Level Pressure 30.02 in    
Wind  
Wind Speed 8 mph (ESE)    
Max Wind Speed 15 mph    
Max Gust Speed 20 mph    
Visibility 10 miles    
Events Rain    
T = Trace of Precipitation, MM = Missing Value Source: NWS Daily Summary

Daily Weather History Graph

Daily Weather History Graph

Search for Another Location

Airport:

Trip Planner

Search our weather history database for the weather conditions in past years. The results will help you decide how hot, cold, wet, or windy it might be!

Date:

Astronomy

Sep. 08, 2013 Rise Set
Actual Time 6:34 AM CDT 7:26 PM CDT
Civil Twilight 6:05 AM CDT 7:55 PM CDT
Nautical Twilight 5:30 AM CDT 8:30 PM CDT
Astronomical Twilight 4:53 AM CDT 9:07 PM CDT
Moon 10:01 AM CDT (9/8) 8:51 PM CDT (9/8)
Length of Visible Light 13h 50m
Length of Day
12h 51m
Waxing Crescent, 11% of the Moon is Illuminated
Sep 8
Waxing Crescent
Sep 12
First Quarter
Sep 19
Full
Sep 26
Last Quarter
Oct 4
New

Hourly Weather History & Observations

Time (CDT) Temp. Dew Point Humidity Pressure Visibility Wind Dir Wind Speed Gust Speed Precip Events Conditions
12:15 AM 72.1 °F 64.4 °F 77% 30.01 in 10.0 mi East 4.6 mph - N/A   Scattered Clouds
12:35 AM 72.9 °F 65.1 °F 77% 30.01 in 10.0 mi East 8.1 mph - N/A   Mostly Cloudy
12:55 AM 73.0 °F 65.5 °F 77% 30.02 in 10.0 mi East 9.2 mph 17.3 mph N/A   Overcast
1:15 AM 73.0 °F 65.1 °F 76% 30.02 in 10.0 mi East 11.5 mph 19.6 mph N/A   Overcast
1:35 AM 72.7 °F 64.8 °F 76% 30.03 in 10.0 mi ENE 11.5 mph 17.3 mph N/A   Overcast
1:55 AM 72.0 °F 63.3 °F 74% 30.04 in 10.0 mi East 15.0 mph 19.6 mph N/A   Overcast
2:15 AM 70.7 °F 62.8 °F 76% 30.05 in 10.0 mi East 11.5 mph 18.4 mph N/A   Overcast
2:35 AM 69.8 °F 62.6 °F 78% 30.05 in 10.0 mi East 11.5 mph 16.1 mph N/A   Overcast
2:55 AM 69.3 °F 61.9 °F 77% 30.05 in 10.0 mi ENE 15.0 mph 19.6 mph N/A   Overcast
3:15 AM 68.4 °F 61.3 °F 78% 30.06 in 10.0 mi East 9.2 mph - N/A   Overcast
3:35 AM 67.6 °F 61.2 °F 80% 30.05 in 10.0 mi East 8.1 mph - N/A   Overcast
3:55 AM 67.5 °F 60.8 °F 79% 30.05 in 10.0 mi East 13.8 mph 19.6 mph N/A   Overcast
4:15 AM 67.1 °F 59.7 °F 77% 30.06 in 10.0 mi East 6.9 mph 16.1 mph N/A   Overcast
4:35 AM 67.1 °F 58.5 °F 74% 30.06 in 10.0 mi East 8.1 mph - N/A   Overcast
4:55 AM 66.7 °F 57.0 °F 71% 30.06 in 10.0 mi East 13.8 mph 17.3 mph N/A   Overcast
5:15 AM 66.0 °F 56.5 °F 71% 30.06 in 10.0 mi East 6.9 mph - N/A   Overcast
5:35 AM 65.7 °F 54.7 °F 68% 30.07 in 10.0 mi East 8.1 mph - N/A   Overcast
5:55 AM 65.3 °F 53.8 °F 66% 30.07 in 10.0 mi East 9.2 mph - N/A   Overcast
6:15 AM 64.8 °F 54.0 °F 68% 30.07 in 10.0 mi East 9.2 mph - N/A   Overcast
6:35 AM 63.7 °F 52.9 °F 68% 30.07 in 10.0 mi East 10.4 mph - N/A   Mostly Cloudy
6:55 AM 62.6 °F 52.7 °F 70% 30.07 in 10.0 mi ENE 4.6 mph - N/A   Clear
7:15 AM 62.6 °F 51.8 °F 68% 30.07 in 10.0 mi ENE 5.8 mph - N/A   Clear
7:35 AM 63.0 °F 51.3 °F 66% 30.07 in 10.0 mi East 6.9 mph - N/A   Clear
7:55 AM 63.9 °F 51.4 °F 64% 30.07 in 10.0 mi East 9.2 mph - N/A   Clear
8:15 AM 64.6 °F 52.0 °F 64% 30.07 in 10.0 mi East 9.2 mph - N/A   Clear
8:35 AM 65.5 °F 52.3 °F 62% 30.07 in 10.0 mi East 5.8 mph - N/A   Clear
8:55 AM 67.1 °F 53.1 °F 61% 30.07 in 10.0 mi East 6.9 mph - N/A   Clear
9:15 AM 67.6 °F 52.7 °F 59% 30.08 in 10.0 mi East 10.4 mph 18.4 mph N/A   Clear
9:35 AM 68.7 °F 52.9 °F 57% 30.08 in 10.0 mi East 9.2 mph 16.1 mph N/A   Scattered Clouds
9:55 AM 67.8 °F 53.2 °F 60% 30.09 in 10.0 mi East 11.5 mph - N/A   Overcast
10:15 AM 67.8 °F 53.6 °F 60% 30.09 in 10.0 mi East 10.4 mph - N/A   Overcast
10:35 AM 68.5 °F 53.8 °F 59% 30.09 in 10.0 mi East 10.4 mph 16.1 mph N/A   Mostly Cloudy
10:55 AM 69.8 °F 53.6 °F 56% 30.09 in 10.0 mi East 9.2 mph - N/A   Mostly Cloudy
11:15 AM 72.1 °F 53.6 °F 52% 30.09 in 10.0 mi ESE 6.9 mph - N/A   Mostly Cloudy
11:35 AM 73.4 °F 54.0 °F 50% 30.08 in 10.0 mi East 10.4 mph - N/A   Mostly Cloudy
11:55 AM 72.9 °F 53.8 °F 51% 30.08 in 10.0 mi East 8.1 mph - N/A   Scattered Clouds
12:15 PM 73.9 °F 54.0 °F 50% 30.07 in 10.0 mi ESE 5.8 mph - N/A   Mostly Cloudy
12:35 PM 75.7 °F 54.0 °F 47% 30.06 in 10.0 mi East 8.1 mph - N/A   Scattered Clouds
12:55 PM 76.3 °F 53.6 °F 45% 30.06 in 10.0 mi SE 9.2 mph - N/A   Mostly Cloudy
1:15 PM 78.1 °F 53.6 °F 43% 30.05 in 10.0 mi SSE 5.8 mph - N/A   Overcast
1:35 PM 77.2 °F 54.7 °F 46% 30.04 in 10.0 mi SSE 10.4 mph - N/A   Overcast
1:55 PM 77.2 °F 55.6 °F 47% 30.03 in 10.0 mi SE 9.2 mph - N/A   Overcast
2:15 PM 76.6 °F 57.0 °F 51% 30.03 in 10.0 mi ESE 8.1 mph - N/A   Overcast
2:35 PM 76.6 °F 57.2 °F 51% 30.02 in 10.0 mi SSE 6.9 mph - N/A   Overcast
2:55 PM 76.3 °F 57.9 °F 53% 30.01 in 10.0 mi SE 6.9 mph - N/A   Overcast
3:15 PM 74.3 °F 58.6 °F 58% 30.01 in 10.0 mi SE 5.8 mph - N/A   Overcast
3:35 PM 75.6 °F 59.0 °F 56% 30.00 in 10.0 mi ESE 6.9 mph - N/A   Overcast
3:55 PM 76.3 °F 59.0 °F 55% 29.99 in 10.0 mi SE 5.8 mph - N/A   Overcast
4:15 PM 74.8 °F 58.8 °F 57% 29.99 in 10.0 mi SE 6.9 mph - N/A   Overcast
4:35 PM 72.9 °F 59.4 °F 62% 29.96 in 10.0 mi SE 12.7 mph 18.4 mph N/A   Overcast
4:55 PM 71.6 °F 61.0 °F 69% 29.97 in 10.0 mi SSE 5.8 mph - N/A Rain Light Rain
5:15 PM 72.5 °F 60.8 °F 67% 29.97 in 10.0 mi SSE 6.9 mph - N/A   Overcast
5:35 PM 72.0 °F 60.8 °F 68% 29.96 in 10.0 mi SE 6.9 mph - N/A   Overcast
5:55 PM 71.6 °F 60.6 °F 68% 29.96 in 10.0 mi SE 8.1 mph - N/A   Overcast
6:15 PM 71.6 °F 60.8 °F 69% 29.96 in 10.0 mi SE 3.5 mph - N/A   Overcast
6:35 PM 71.1 °F 60.4 °F 69% 29.96 in 10.0 mi SE 5.8 mph - N/A   Overcast
6:55 PM 70.3 °F 61.0 °F 72% 29.96 in 10.0 mi SE 5.8 mph - N/A Rain Light Rain
7:15 PM 69.3 °F 62.4 °F 79% 29.97 in 10.0 mi Calm Calm - N/A Rain Light Rain
7:35 PM 68.5 °F 63.7 °F 84% 29.97 in 10.0 mi ENE 3.5 mph - N/A   Overcast
7:55 PM 68.2 °F 63.1 °F 84% 29.97 in 10.0 mi ENE 4.6 mph - N/A   Overcast
8:15 PM 68.2 °F 63.1 °F 84% 29.97 in 10.0 mi East 3.5 mph - N/A   Overcast
8:35 PM 68.0 °F 63.0 °F 84% 29.98 in 10.0 mi East 3.5 mph - N/A   Overcast
8:55 PM 68.2 °F 63.1 °F 84% 29.99 in 10.0 mi East 3.5 mph - N/A   Overcast
9:15 PM 68.4 °F 62.8 °F 82% 29.98 in 10.0 mi East 4.6 mph - N/A   Overcast
9:35 PM 68.5 °F 62.8 °F 82% 29.98 in 10.0 mi ESE 6.9 mph - N/A   Overcast
9:55 PM 68.4 °F 63.1 °F 83% 29.98 in 10.0 mi ESE 6.9 mph - N/A   Overcast
10:15 PM 68.0 °F 63.5 °F 85% 29.97 in 10.0 mi ESE 3.5 mph - N/A   Overcast
10:35 PM 68.0 °F 63.7 °F 86% 29.96 in 10.0 mi ESE 5.8 mph - N/A   Overcast
10:55 PM 67.5 °F 63.9 °F 88% 29.96 in 10.0 mi SE 5.8 mph - N/A   Overcast
11:15 PM 67.1 °F 65.3 °F 94% 29.95 in 10.0 mi SE 3.5 mph - N/A   Overcast
11:35 PM 67.1 °F 65.7 °F 95% 29.95 in 10.0 mi Calm Calm - N/A   Overcast
11:55 PM 67.1 °F 65.5 °F 95% 29.94 in 10.0 mi SE 3.5 mph - N/A   Overcast